Date_and_time,latitude,longitude,wind_speed,RelWindDirFrom,WindDirFrom,air_pressure,air_temperature,relative_humidity,Temp,platform_speed_wrt_ground,air_pressure_at_mean_sea_level,platform_orientation
2019-07-24 23:30,51.77047,-96.864445,18.8,24.2,148,984.05,24.6,64,23.00,1.7,1009.34,344.1
2019-07-24 23:40,51.7445216666667,-96.863215,22.9,28.3,157,983.62,25.6,54,22.92,9.3,1008.85,344.1
2019-07-24 23:50,51.7428566666667,-96.8647516666667,8.8,17.0,156,984.50,27.0,48,22.43,0.7,1009.78,344.1
2019-07-25 00:00,51.7429883333333,-96.8646833333333,9.2,17.3,161,984.38,27.1,48,22.32,0.1,1009.72,339.7
2019-07-25 00:10,51.7429416666667,-96.8647083333333,8.6,15.0,167,984.28,26.9,48,22.34,0.0,1009.55,339.7
2019-07-25 00:20,51.7429783333333,-96.8646483333333,8.0,13.1,163,984.24,26.7,49,22.30,0.0,1009.48,339.7
2019-07-25 00:30,51.742925,-96.86476,7.3,12.0,162,984.22,26.6,50,22.28,0.0,1009.56,339.7
2019-07-25 00:40,51.74299,-96.8646333333333,8.4,13.6,163,984.15,26.6,49,22.25,0.0,1009.51,339.7
2019-07-25 00:50,51.7429816666667,-96.8646416666667,7.5,12.5,165,984.16,26.5,49,22.23,0.0,1009.51,339.7
2019-07-25 01:00,51.7429816666667,-96.86463,7.4,11.8,170,984.15,26.3,49,22.22,0.0,1009.51,240.1
2019-07-25 01:10,51.742985,-96.8645466666667,7.7,12.7,174,984.09,26.1,49,22.21,0.0,1009.46,240.1
2019-07-25 01:20,51.743,-96.8645816666667,7.7,12.9,177,984.06,26.0,50,22.20,0.0,1009.43,240.1
2019-07-25 01:30,51.7430266666667,-96.8645133333333,8.5,13.7,178,983.93,25.9,49,22.19,0.0,1009.26,240.1
2019-07-25 01:40,51.743005,-96.864535,7.6,11.8,176,983.91,25.9,50,22.18,0.0,1009.18,240.1
2019-07-25 01:50,51.743,-96.86449,7.1,12.9,177,983.88,25.7,50,22.16,0.0,1009.15,240.1
2019-07-25 02:00,51.7430283333333,-96.8644683333333,8.4,14.0,179,983.78,25.6,50,22.15,0.0,1009.07,178.8
2019-07-25 02:10,51.743015,-96.8644516666667,7.7,11.8,178,983.71,25.6,50,22.15,0.0,1009.01,178.8
2019-07-25 02:20,51.74302,-96.8644316666667,7.5,12.0,178,983.61,25.4,51,22.16,0.0,1008.91,178.8
2019-07-25 02:30,51.74303,-96.8643583333333,8.1,13.7,175,983.46,25.2,52,22.16,0.0,1008.77,178.8
2019-07-25 02:40,51.7430083333333,-96.8644483333333,7.8,13.0,174,983.30,25.1,53,22.15,0.0,1008.62,178.8
2019-07-25 02:50,51.7429966666667,-96.8644533333333,8.3,14.5,169,983.05,25.0,53,22.15,0.0,1008.37,178.8
2019-07-25 03:00,51.7430383333333,-96.86446,8.9,13.7,171,982.96,25.0,53,22.14,0.0,1008.29,72.1
2019-07-25 03:10,51.7430316666667,-96.8644016666667,8.3,13.9,174,982.85,25.0,53,22.13,0.0,1008.18,72.1
2019-07-25 03:20,51.7430383333333,-96.8642783333333,9.9,16.7,177,982.79,25.0,52,22.16,0.0,1008.12,72.1
2019-07-25 03:30,51.74304,-96.8642616666667,9.7,16.1,181,982.72,25.0,51,22.16,0.0,1008.05,72.1
2019-07-25 03:40,51.74304,-96.8643666666667,10.6,16.3,185,982.63,24.9,52,22.16,0.0,1007.97,72.1
2019-07-25 03:50,51.7430516666667,-96.8642766666667,9.9,17.1,182,982.44,24.7,52,22.14,0.0,1007.78,72.1
2019-07-25 04:00,51.743035,-96.8643083333333,9.2,15.3,181,982.42,24.6,53,22.14,0.0,1007.78,74.5
2019-07-25 04:10,51.7430283333333,-96.86432,9.7,14.0,180,982.33,24.4,53,22.15,0.0,1007.70,74.5
2019-07-25 04:20,51.7430233333333,-96.8642966666667,8.9,14.4,178,982.31,24.3,54,22.16,0.0,1007.69,74.5
2019-07-25 04:30,51.7430316666667,-96.8644066666667,8.1,13.7,177,982.29,24.2,55,22.17,0.0,1007.67,74.5
2019-07-25 04:40,51.743045,-96.864375,7.9,12.3,177,982.18,24.1,56,22.17,0.0,1007.57,74.5
2019-07-25 04:50,51.7430433333333,-96.8643166666667,8.0,12.5,181,982.29,24.0,57,22.17,0.0,1007.69,74.5
2019-07-25 05:00,51.7430466666667,-96.8643883333333,7.8,13.8,180,982.37,23.9,59,22.16,0.0,1007.78,73.3
2019-07-25 05:10,51.743035,-96.864355,9.1,16.1,176,982.08,23.8,60,22.15,0.0,1007.48,73.3
2019-07-25 05:20,51.7430433333333,-96.8643333333333,9.1,15.5,179,982.23,23.8,61,22.14,0.0,1007.64,73.3
2019-07-25 05:30,51.74303,-96.8642933333333,7.8,12.7,180,982.35,23.7,62,22.15,0.0,1007.77,73.3
2019-07-25 05:40,51.7430366666667,-96.86427,8.5,13.1,181,982.25,23.6,63,22.16,0.0,1007.67,73.3
2019-07-25 05:50,51.7430466666667,-96.86431,8.0,12.6,181,982.36,23.5,63,22.19,0.0,1007.80,73.3
2019-07-25 06:00,51.743055,-96.8643066666667,7.5,12.1,181,982.28,23.3,64,22.21,0.0,1007.73,80.7
2019-07-25 06:10,51.7430416666667,-96.8642966666667,7.5,11.3,181,982.25,23.2,66,22.21,0.0,1007.71,80.7
2019-07-25 06:20,51.7430333333333,-96.8642616666667,8.2,14.3,183,982.09,23.1,67,22.21,0.0,1007.56,80.7
2019-07-25 06:30,51.7430183333333,-96.8642816666667,7.8,13.9,182,981.95,23.0,68,22.21,0.0,1007.42,80.7
2019-07-25 06:40,51.7429816666667,-96.8642183333333,7.6,12.1,183,981.88,22.9,69,22.20,0.0,1007.35,80.7
2019-07-25 06:50,51.74302,-96.8642533333333,7.4,11.5,185,981.79,22.8,70,22.21,0.0,1007.27,80.7
2019-07-25 07:00,51.7430333333333,-96.8643033333333,7.7,12.3,179,981.58,22.8,70,22.19,0.0,1007.06,90.0
2019-07-25 07:10,51.743035,-96.8642666666667,7.5,12.3,176,981.42,22.8,71,22.13,0.0,1006.91,90.0
2019-07-25 07:20,51.7430466666667,-96.8643266666667,8.0,11.9,177,981.37,22.7,71,22.10,0.0,1006.86,90.0
2019-07-25 07:30,51.74306,-96.8643716666667,7.6,12.2,177,981.18,22.7,71,22.09,0.0,1006.67,90.0
2019-07-25 07:40,51.74303,-96.86429,8.0,13.3,176,980.94,22.6,72,22.08,0.0,1006.43,90.0
2019-07-25 07:50,51.7430316666667,-96.8642216666667,8.4,13.9,183,980.87,22.6,72,22.08,0.0,1006.37,90.0
2019-07-25 08:00,51.7430183333333,-96.8642916666667,7.9,13.9,183,980.77,22.6,72,22.07,0.0,1006.27,110.2
2019-07-25 08:10,51.7430416666667,-96.8643816666667,8.4,12.9,177,980.54,22.6,71,22.06,0.0,1006.04,110.2
2019-07-25 08:20,51.743045,-96.8643383333333,8.5,13.4,175,980.46,22.5,70,22.05,0.0,1005.97,110.2
2019-07-25 08:30,51.743035,-96.8643366666667,8.3,13.9,175,980.32,22.5,69,22.06,0.0,1005.82,110.2
2019-07-25 08:40,51.743035,-96.8643566666667,8.8,16.0,175,980.14,22.5,69,22.07,0.0,1005.64,110.2
2019-07-25 08:50,51.74305,-96.8643616666667,9.0,15.0,176,980.04,22.4,69,22.09,0.0,1005.55,110.2
2019-07-25 09:00,51.74303,-96.8644183333333,9.4,15.2,173,979.91,22.4,69,22.10,0.0,1005.42,257.4
2019-07-25 09:10,51.7430516666667,-96.8643816666667,9.1,16.5,172,979.87,22.4,69,22.13,0.0,1005.38,257.4
2019-07-25 09:20,51.7430083333333,-96.8642683333333,8.1,12.3,181,979.95,22.5,68,22.15,0.0,1005.45,257.4
2019-07-25 09:30,51.7430383333333,-96.8643583333333,8.1,14.4,177,979.84,22.5,68,22.17,0.0,1005.34,257.4
2019-07-25 09:40,51.7430233333333,-96.8643966666667,9.2,15.4,181,979.55,22.6,67,22.19,0.0,1005.04,257.4
2019-07-25 09:50,51.743045,-96.8644183333333,8.0,12.5,178,979.20,22.6,66,22.19,0.0,1004.68,257.4
2019-07-25 10:00,51.7430533333333,-96.8643266666667,8.6,13.4,172,978.94,22.7,65,22.19,0.0,1004.42,308.5
2019-07-25 10:10,51.7430333333333,-96.864375,9.6,17.6,173,978.82,22.7,64,22.17,0.0,1004.29,308.5
2019-07-25 10:20,51.74303,-96.8644283333333,9.6,18.3,174,978.81,22.5,64,22.15,0.0,1004.29,308.5
2019-07-25 10:30,51.7430316666667,-96.864495,7.7,13.1,163,978.39,22.3,65,22.13,0.0,1003.88,308.5
2019-07-25 10:40,51.7430333333333,-96.864435,8.2,13.7,165,978.26,22.1,66,22.14,0.0,1003.75,308.5
2019-07-25 10:50,51.7430366666667,-96.8644233333333,7.1,11.6,174,978.35,21.9,68,22.16,0.0,1003.85,308.5
2019-07-25 11:00,51.7430316666667,-96.8645266666667,7.3,12.9,174,978.29,21.9,68,22.14,0.0,1003.79,274.3
2019-07-25 11:10,51.7533066666667,-96.865805,5.2,11.7,157,978.17,22.0,69,22.09,3.7,1003.67,274.3
2019-07-25 11:20,51.7843666666667,-96.878725,4.6,9.6,152,977.91,23.0,65,22.21,11.5,1003.34,274.3
2019-07-25 11:30,51.81358,-96.898755,5.6,9.0,190,978.07,22.3,70,22.47,11.4,1003.54,274.3
2019-07-25 11:40,51.841625,-96.9200033333333,6.3,10.5,188,977.84,21.9,72,22.46,11.1,1003.32,274.3
2019-07-25 11:50,51.869705,-96.941655,7.0,10.2,191,977.66,21.9,72,22.45,11.2,1003.13,274.3
2019-07-25 12:00,51.8983116666667,-96.96075,9.4,13.6,200,977.82,21.9,73,22.54,11.1,1003.30,339.1
2019-07-25 12:10,51.9259766666667,-96.9826483333333,10.8,14.5,206,977.78,21.9,73,22.68,11.1,1003.27,339.1
2019-07-25 12:20,51.9536483333333,-97.0038683333333,12.2,16.8,209,977.77,21.8,72,22.58,11.0,1003.27,339.1
2019-07-25 12:30,51.982015,-97.0234033333333,12.3,17.5,211,977.80,21.6,73,22.41,11.1,1003.31,339.1
2019-07-25 12:40,52.0096733333333,-97.0452983333333,11.4,15.8,215,977.68,21.3,74,22.37,11.1,1003.21,339.1
2019-07-25 12:50,52.03742,-97.066905,10.8,14.8,209,977.54,21.2,76,22.54,11.1,1003.07,339.1
2019-07-25 13:00,52.0653583333333,-97.0878,10.7,15.3,209,977.56,21.2,78,22.54,11.1,1003.09,336.9
2019-07-25 13:10,52.0870116666667,-97.1054866666667,12.5,17.9,201,977.47,21.3,80,22.55,8.7,1002.94,336.9
2019-07-25 13:20,52.0948516666667,-97.1113933333333,18.1,21.7,187,977.09,21.4,78,22.52,3.1,1002.59,336.9
2019-07-25 13:30,52.102435,-97.1171483333333,17.8,21.6,188,976.89,21.4,79,22.60,3.0,1002.40,336.9
2019-07-25 13:40,52.110175,-97.1224916666667,18.4,21.2,191,976.90,21.5,78,22.60,3.0,1002.41,336.9
2019-07-25 13:50,52.12057,-97.128905,16.4,20.1,195,976.92,21.4,78,22.55,4.0,1002.43,336.9
2019-07-25 14:00,52.12101,-97.1287783333333,17.0,19.9,195,976.49,21.9,78,22.47,0.2,1001.97,336.8
2019-07-25 14:10,52.1210466666667,-97.1287933333333,15.6,18.9,194,976.45,22.1,78,22.45,0.0,1001.92,336.8
2019-07-25 14:20,52.1210433333333,-97.1288533333333,14.6,18.2,197,976.48,22.3,78,22.45,0.0,1001.95,336.8
2019-07-25 14:30,52.1290016666667,-97.1352816666667,11.9,18.4,196,976.57,22.3,78,22.45,3.2,1002.06,336.8
2019-07-25 14:40,52.1568416666667,-97.15562,6.1,9.3,225,976.66,22.0,80,22.46,11.0,1002.17,336.8
2019-07-25 14:50,52.1848133333333,-97.1752516666667,4.8,8.3,212,976.56,22.0,81,22.37,11.0,1002.06,336.8
2019-07-25 15:00,52.2133883333333,-97.1881966666667,2.5,5.9,192,976.50,22.3,81,22.39,10.7,1001.98,336.2
2019-07-25 15:10,52.2295516666667,-97.1881566666667,6.9,12.8,175,976.23,23.8,75,22.51,5.8,1001.64,336.2
2019-07-25 15:20,52.2373066666667,-97.1883583333333,9.0,12.1,191,976.23,22.8,81,22.62,2.8,1001.69,336.2
2019-07-25 15:30,52.2450933333333,-97.188265,10.0,13.1,202,976.21,22.7,80,22.65,2.8,1001.66,336.2
2019-07-25 15:40,52.2554733333333,-97.18928,11.0,14.8,215,976.06,22.9,77,22.65,3.7,1001.50,336.2
2019-07-25 15:50,52.2664316666667,-97.1911833333333,10.6,15.7,215,976.02,23.3,77,22.72,4.0,1001.42,336.2
2019-07-25 16:00,52.266425,-97.1912383333333,11.3,13.6,213,975.95,23.6,77,22.81,0.0,1001.33,342.5
2019-07-25 16:10,52.26644,-97.191225,11.4,14.3,210,976.00,23.8,77,22.84,0.0,1001.37,342.5
2019-07-25 16:20,52.2664183333333,-97.19114,12.2,15.8,219,976.01,23.9,76,22.89,0.0,1001.37,342.5
2019-07-25 16:30,52.2664316666667,-97.1911266666667,12.4,15.4,222,976.04,24.0,74,22.91,0.0,1001.40,342.5
2019-07-25 16:40,52.2664116666667,-97.191135,11.1,14.5,220,976.02,24.1,74,22.91,0.0,1001.38,342.5
2019-07-25 16:50,52.2759766666667,-97.1890316666667,8.2,13.3,229,976.16,24.0,75,22.92,3.5,1001.52,342.5
2019-07-25 17:00,52.3071316666667,-97.1882683333333,5.3,7.6,278,976.32,23.7,77,22.87,11.2,1001.63,348.9
2019-07-25 17:10,52.3381466666667,-97.1887833333333,5.9,9.3,267,976.23,23.7,76,22.79,11.2,1001.58,348.9
2019-07-25 17:20,52.3645883333333,-97.2074266666667,17.7,29.9,270,975.76,24.5,56,22.73,10.4,1001.07,348.9
2019-07-25 17:30,52.3863583333333,-97.24209,22.9,27.4,269,975.43,24.9,51,22.62,10.9,1000.70,348.9
2019-07-25 17:40,52.4059483333333,-97.276955,19.2,22.0,265,975.65,23.6,66,22.47,10.4,1000.97,348.9
2019-07-25 17:50,52.4113833333333,-97.288,13.0,16.0,241,976.15,23.0,71,22.44,3.1,1001.49,348.9
2019-07-25 18:00,52.4117033333333,-97.2981516666667,15.2,17.7,234,975.90,23.2,67,22.45,2.2,1001.22,341.3
2019-07-25 18:10,52.4148033333333,-97.30787,14.2,17.4,239,976.20,23.2,67,22.40,2.4,1001.53,341.3
2019-07-25 18:20,52.40948,-97.316935,16.6,18.8,245,976.04,23.4,64,22.30,2.8,1001.35,341.3
2019-07-25 18:30,52.426905,-97.33159,14.9,18.1,280,976.15,23.3,64,22.23,7.1,1001.46,341.3
2019-07-25 18:40,52.4331366666667,-97.337355,9.4,16.3,261,976.36,23.0,70,22.33,2.6,1001.69,341.3
2019-07-25 18:50,52.4331916666667,-97.337365,11.0,15.8,259,976.34,23.1,66,22.39,0.0,1001.68,341.3
2019-07-25 19:00,52.4331466666667,-97.3372966666667,15.8,20.0,270,976.19,23.5,57,22.36,0.0,1001.51,331.9
2019-07-25 19:10,52.433185,-97.337315,15.6,18.7,268,976.25,23.5,58,22.29,0.0,1001.53,331.9
2019-07-25 19:20,52.4332283333333,-97.3373416666667,16.0,18.3,265,976.28,23.4,58,22.22,0.0,1001.55,331.9
2019-07-25 19:30,52.4332183333333,-97.3373533333333,14.5,17.9,264,976.44,23.4,57,22.24,0.0,1001.77,331.9
2019-07-25 19:40,52.4490666666667,-97.3462283333333,20.1,29.4,278,976.56,23.3,56,22.27,6.0,1001.93,331.9
2019-07-25 19:50,52.476725,-97.3648033333333,24.0,28.4,282,976.71,23.3,54,22.09,10.8,1002.08,331.9
2019-07-25 20:00,52.5031566666667,-97.3799016666667,22.6,26.2,280,976.89,23.2,54,21.77,10.1,1002.26,329.3
2019-07-25 20:10,52.529595,-97.3975066666667,20.2,24.4,283,976.89,23.1,54,21.66,10.3,1002.26,329.3
2019-07-25 20:20,52.5575983333333,-97.4123033333333,19.4,23.9,293,976.76,23.0,56,21.59,10.6,1002.14,329.3
2019-07-25 20:30,52.5846783333333,-97.4307716666667,21.3,26.2,293,976.51,22.8,56,21.47,10.6,1001.90,329.3
2019-07-25 20:40,52.61267,-97.4455466666667,21.1,25.2,293,976.74,22.7,56,21.50,10.6,1002.13,329.3
2019-07-25 20:50,52.639395,-97.4648116666667,20.0,24.0,295,976.51,22.6,58,21.46,10.5,1001.89,329.3
2019-07-25 21:00,52.6663316666667,-97.483065,20.8,24.6,293,976.63,22.5,58,21.35,10.5,1002.02,336.2
2019-07-25 21:10,52.6936216666667,-97.50032,22.3,27.9,290,976.86,22.5,56,21.29,10.5,1002.25,336.2
2019-07-25 21:20,52.7210466666667,-97.5173166666667,22.8,28.2,292,976.81,22.5,57,21.21,10.5,1002.20,336.2
2019-07-25 21:30,52.7486933333333,-97.5340583333333,20.6,26.1,291,976.85,22.3,57,21.15,10.6,1002.26,336.2
2019-07-25 21:40,52.7716233333333,-97.5627266666667,20.9,24.9,286,976.31,22.2,57,21.08,10.4,1001.71,336.2
2019-07-25 21:50,52.7887766666667,-97.59491,19.7,25.4,280,976.26,22.2,59,21.08,9.3,1001.66,336.2
2019-07-25 22:00,52.8107216666667,-97.617565,16.2,20.8,290,976.62,22.2,59,21.12,9.3,1002.03,335.9
2019-07-25 22:10,52.8179166666667,-97.6188266666667,8.6,14.2,263,977.15,22.6,56,21.81,2.6,1002.57,335.9
2019-07-25 22:20,52.81788,-97.61896,6.0,11.2,244,977.20,23.2,53,22.84,0.0,1002.60,335.9
2019-07-25 22:30,52.8178683333333,-97.6189683333333,5.4,13.9,258,977.23,23.5,52,22.85,0.0,1002.62,335.9
2019-07-25 22:40,52.817875,-97.6189633333333,5.4,9.9,270,977.27,23.4,52,22.98,0.0,1002.67,335.9
2019-07-25 22:50,52.8178633333333,-97.6189616666667,5.4,13.4,258,977.31,23.4,51,23.02,0.0,1002.71,335.9
2019-07-25 23:00,52.8178733333333,-97.6189666666667,4.0,10.5,272,977.26,23.4,51,23.04,0.0,1002.67,335.4
2019-07-25 23:10,52.81787,-97.6189666666667,3.7,8.9,260,977.25,22.6,55,23.09,0.0,1002.69,335.4
2019-07-25 23:20,52.8178733333333,-97.6189733333333,3.9,10.4,262,977.18,22.7,55,23.10,0.0,1002.62,335.4
2019-07-25 23:30,52.81787,-97.618965,3.3,8.0,277,977.12,22.6,54,23.08,0.0,1002.57,335.4
2019-07-25 23:40,52.81787,-97.6189683333333,2.9,6.5,267,977.07,22.0,59,23.06,0.0,1002.55,335.4
